{"data":{"norad_id":59659,"intl_designator":"2024-084F","name":"STARLINK-31881","alt_names":[],"object_type":"PAYLOAD","status":"ACTIVE","operator":null,"country":"US","launch_date":"2024-05-06","launch_site_code":"AFETR","launch_vehicle":null,"mission":null,"orbit_class":"UNKNOWN","rcs_meters":null,"size_class":null,"mass_kg":null,"dimensions":null,"purposes":["comms"],"wikipedia_slug":null,"has_3d_model":false,"image_url":null,"decayed_at":null,"tle_current":{"epoch":"2026-09-21T00:57:18.103968Z","epoch_age_seconds":121632,"freshness":"FRESH","line1":"1 59659U 24084F   26264.03979287 -.00000411  00000+0 -54172-5 0  9998","line2":"2 59659  43.0061  14.7354 0001869 270.3752  89.6885 15.27577497134291","mean_motion":15.27577497,"eccentricity":0.0001869,"inclination_deg":43.0061,"raan_deg":14.7354,"arg_perigee_deg":270.3752,"mean_anomaly_deg":89.6885,"bstar":-5.4172e-6,"rev_number":13429,"period_min":94.266903173686,"perigee_km":481.77423385019,"apogee_km":484.33894801448,"semimajor_km":6861.1935909323,"source":"CELESTRAK","updated_at":"2026-09-22T09:00:49.025533Z"}}}